AirNav   Air Wisconsin Up To $57,000 Bonus
 
 1302 users online  

KEIW County Memorial Airport
New Madrid, Missouri, USA

GOING TO NEW MADRID?


FAA INFORMATION EFFECTIVE 02 JANUARY 2020

Location

FAA Identifier: EIW
Lat/Long: 36-32-07.1000N 089-35-59.0000W
36-32.118333N 089-35.983333W
36.5353056,-89.5997222
(estimated)
Elevation: 295.8 ft. / 90.2 m (surveyed)
Variation: 00E (2000)
From city: 4 miles SW of NEW MADRID, MO
Time zone: UTC -6 (UTC -5 during Daylight Saving Time)
Zip code: 63866

Airport Operations

Airport use: Open to the public
Control tower: no
ARTCC: MEMPHIS CENTER
FSS: SAINT LOUIS FLIGHT SERVICE STATION
NOTAMs facility: STL (NOTAM-D service available)
Attendance: OCT-MAR MON-FRI 0800-1630, APR-SEP MON-FRI 0800-1730, ALL SAT-SUN 0900-1630
Wind indicator: lighted
Segmented circle: yes
Lights: MIRL RWY 18/36 PRESET ON MED INTST; TO INCR INTST & ACTVT MIRL RWY 18/36 - CTAF.
Beacon: white-green (lighted land airport)
Operates sunset to sunrise.

Airport Communications

CTAF/UNICOM: 122.8
WX AWOS-3PT at MAW (19 nm W): 119.825 (573-276-9970)
  • UNICOM UNMON.
  • APCH/DEP SVC PRVDD BY MEMPHIS ARTCC ON FREQS 133.65/292.15 (PADUCAH RCAG).

Nearby radio navigation aids

VOR radial/distance  VOR name  Freq  Var
MAWr092/15.1MALDEN VORTAC111.2003E
DYRr333/33.9DYERSBURG VORTAC116.8003E

 
NDB name  Hdg/Dist  Freq  Var  ID
CAIRO210/36.439700ECIR -.-. .. .-.

Airport Services

Fuel available: 100LL
FOR SVC AFT HRS, CALL ARPT MGR AT (573) 643-2403 OR (573) 934-3734.
Parking: hangars and tiedowns
Powerplant service: NONE

Runway Information

Runway 18/36

Dimensions: 3200 x 60 ft. / 975 x 18 m
Surface: asphalt, in good condition
Runway edge lights: medium intensity
RUNWAY 18  RUNWAY 36
Latitude: 36-32.382167N36-31.854833N
Longitude: 089-35.984500W089-35.982333W
Elevation: 294.8 ft.295.8 ft.
Traffic pattern: leftleft
Runway heading: 180360
Markings: nonprecision, in good conditionnonprecision, in good condition
Touchdown point: yes, no lightsyes, no lights
Obstructions: 15 ft. road, 300 ft. from runway, 250 ft. left and right of centerline, 6:1 slope to clearnone

Airport Ownership and Management from official FAA records

Ownership: Publicly-owned
Owner: COUNTY OF NEW MADRID
450 MAIN STREET, PO BOX 68
NEW MADRID, MO 63869
Phone 573-748-2524
Manager: BUSTER HAMPTON
P.O. BOX 668
NEW MADRID, MO 63869
Phone (573) 643-2403
COUNTY CLERK.

Airport Operational Statistics

Aircraft based on the field: 9
Single engine airplanes: 7
Multi engine airplanes: 1
Helicopters: 1
    
Aircraft operations: avg 47/day *
72% local general aviation
22% transient general aviation
5% air taxi
<1% military
* for 12-month period ending 31 December 2018

Additional Remarks

CROP DUSTING ACFT ON & INVOF ARPT.
WATERFOWL INVOF ARPT.
FOR CD CTC MEMPHIS ARTCC AT 901-368-8453.

Instrument Procedures

NOTE: All procedures below are presented as PDF files. If you need a reader for these files, you should download the free Adobe Reader.

NOT FOR NAVIGATION. Please procure official charts for flight.
FAA instrument procedures published for use from 02 January 2020 at 0901Z to 30 January 2020 at 0900Z.

 
IAPs - Instrument Approach Procedures
RNAV (GPS) RWY 18   download (185KB)
RNAV (GPS) RWY 36   download (194KB)
VOR/DME-A   download (133KB)
NOTE: Special Take-Off Minimums/Departure Procedures apply   download (321KB)

Other nearby airports with instrument procedures:

M85 - Gideon Memorial Airport (16 nm W)
KMAW - Malden Regional Airport (19 nm W)
KCHQ - Mississippi County Airport (22 nm NE)
KDXE - Dexter Municipal Airport (22 nm NW)
KSIK - Sikeston Memorial Municipal Airport (22 nm N)
 
Loc | Ops | Rwys | IFR | FBO | Links
Com | Nav | Svcs | Stats | Notes

Kansas City Aviation Department
 
Area around KEIW (County Memorial Airport)
 
Road maps at: MapQuest Bing Google
 
Aerial photo
WARNING: Photo may not be current or correct
Aerial photo of KEIW (County Memorial Airport)
Do you have a better or more recent aerial photo of County Memorial Airport that you would like to share? If so, please send us your photo.

 
Sectional chart

 
Airport distance calculator
Flying to County Memorial Airport? Find the distance to fly.

From to KEIW

Sunrise and sunset
Times for 17-Jan-2020
 Local
(UTC-6)
 Zulu
(UTC)
Morning civil twilight06:4212:42
Sunrise07:1013:10
Sunset17:0723:07
Evening civil twilight17:3523:35

Current date and time
Zulu (UTC)  17-Jan-2020 14:34:28
Local (UTC-6)  17-Jan-2020 08:34:28
 
METAR
KMAW 
19nm W 
171415Z AUTO 10SM UP CLR 00/M02 A3060 RMK AO2 TSNO
KSIK 
22nm N 
171035Z AUTO 05008KT 10SM CLR 00/M03 A3064 RMK AO2
KTKX 
28nm SW 
171415Z AUTO 04009G14KT 10SM OVC065 01/M01 A3056 RMK AO2
KUCY 
31nm E 
171415Z AUTO 06007KT 10SM SCT090 01/M05 A3058 RMK A01
KDYR 
34nm S 
171356Z AUTO 07012KT 10SM -RA OVC075 01/M03 A3057 RMK AO2 SLP359 T00111028 FZRANO PNO $
KCIR 
37nm NE 
171415Z AUTO 07009KT 1 1/4SM OVC100 00/M05 A3062 RMK AO2 T10051050 PWINO TSNO
KPOF 
37nm W 
171353Z AUTO 06009KT 10SM UP OVC075 M01/M04 A3060 RMK AO2 UPE1258B21 SLP369 P0000 T10061044
KHKA 
38nm S 
171353Z AUTO 07007KT 10SM -RA OVC070 02/M03 A3057 RMK AO2 RAB10UPB28E35 SLP353 P0001 T00171028 $
TAF
KCGI 
42nm N 
171120Z 1712/1812 06008KT P6SM OVC180 FM171600 09011KT P6SM VCSH OVC070 FM180000 12010KT P6SM -SHRA OVC040 FM180500 18014G24KT 6SM SHRA OVC018 WS020/20050KT
NOTAMs
Click for the latest NOTAMs
NOTAMs are issued by the DoD/FAA and will open in a separate window not controlled by AirNav.

 

 
 

FBO, Fuel Providers, and Aircraft Ground Support

  
 Business Name 
 
 Contact 
 
 Services / Description 
 
Fuel Prices
 
Comments
  
Hampton's Flying Service 573-934-3734
no information available

If you are affiliated with Hampton's Flying Service and would like to show here your services, contact info, web link, logo, and more, click here
100LL
SS $4.75 
 Updated 30-Dec-2019
 
   write
SS=Self service
Update Fuel Prices
 

Would you like to see your business listed on this page?

 If your business provides an interesting product or service to pilots, flight crews, aircraft, or users of the County Memorial Airport, you should consider listing it here.  To start the listing process, click on the button below
 
Add a business
 

Other Pages about County Memorial Airport

Update a link
 
Copyright © AirNav, LLC. All rights reserved. Privacy Policy  Contact